FW5186 Weather Reports


time (UTC)temp
F
wind
direction
speed
knots
gust
knots
rain 1hr
in
rain 24hr
in
rain mn
in
humidity
%
barometer
mb
20260506044543 37 360 0.0 3.5 0.00 0.40 0.40 80 1011.3
20260506043045 37 360 0.0 2.6 0.00 0.40 0.40 79 1011.3
20260506041546 37 360 0.0 3.5 0.00 0.40 0.40 80 1011.2
20260506040040 36 360 0.0 3.5 0.00 0.40 0.40 83 1010.9
20260506034537 37 360 0.9 2.6 0.00 0.40 0.40 81 1010.6
20260506033033 37 360 0.0 1.7 0.00 0.40 0.40 81 1010.4
20260506031539 40 360 0.0 2.6 0.00 0.40 0.40 77 1010.1
20260506030027 41 360 0.0 4.3 0.00 0.40 0.40 74 1009.6
20260506024524 42 360 0.0 7.0 0.00 0.40 0.40 70 1009.3
20260506023036 42 360 0.0 7.0 0.00 0.40 0.40 72 1009.0
20260506021532 42 360 0.0 3.5 0.00 0.40 0.40 70 1008.6
20260506020025 43 360 1.7 7.0 0.00 0.40 0.40 70 1008.4
20260506014520 43 360 1.7 8.7 0.00 0.40 0.40 71 1008.1
20260506013019 44 360 1.7 3.5 0.00 0.40 0.40 70 1007.7
20260506011514 45 360 2.6 5.2 0.01 0.40 0.40 69 1007.7
20260506010015 45 360 1.7 8.7 0.02 0.40 0.40 73 1007.1
20260506004514 45 360 1.7 9.6 0.03 0.40 0.40 72 1007.2
20260506003014 44 360 0.9 5.2 0.05 0.40 0.40 80 1007.3
20260506001512 43 360 0.0 7.0 0.05 0.39 0.39 85 1007.0
20260506000012 43 360 1.7 7.8 0.04 0.38 0.38 87 1006.9
20260505234613 43 360 1.7 2.6 0.03 0.37 0.37 86 1006.7
20260505233010 43 360 0.0 7.0 0.01 0.35 0.35 80 1006.6
20260505231518 45 360 0.9 7.8 0.00 0.34 0.34 75 1006.6
20260505230020 46 360 3.5 8.7 0.01 0.34 0.34 73 1006.4
20260505224513 45 360 1.7 8.7 0.02 0.34 0.34 78 1006.7
20260505223008 43 360 1.7 9.6 0.02 0.34 0.34 81 1006.9
20260505221508 42 360 2.6 13.0 0.02 0.34 0.34 83 1007.2
20260505220006 47 360 5.2 20.0 0.01 0.33 0.33 71 1007.1
20260505214505 52 360 1.7 14.8 0.00 0.32 0.32 57 1005.9
20260505213007 50 360 1.7 7.8 0.00 0.32 0.32 68 1006.2
20260505211507 48 360 1.7 7.8 0.00 0.32 0.32 69 1006.3
20260505210100 49 360 6.1 14.8 0.00 0.32 0.32 67 1006.7
20260505204558 50 360 2.6 20.9 0.00 0.32 0.32 67 1006.5
20260505203120 50 360 3.5 8.7 0.00 0.32 0.32 70 1006.3
20260505201601 50 360 4.3 11.3 0.04 0.32 0.32 76 1006.3
20260505200054 47 360 0.9 7.8 0.04 0.32 0.32 81 1006.5
20260505194549 44 360 2.6 7.0 0.04 0.32 0.32 90 1006.7
20260505193047 42 360 2.6 10.4 0.04 0.32 0.32 84 1007.3
20260505191645 46 360 5.2 12.2 0.00 0.28 0.28 71 1007.6
20260505190044 47 360 4.3 13.0 0.00 0.28 0.28 78 1006.4
20260505184542 48 360 2.6 12.2 0.00 0.28 0.28 73 1006.5
20260505183042 47 360 2.6 13.9 0.00 0.28 0.28 78 1006.6
20260505181548 48 360 6.1 13.9 0.00 0.28 0.28 77 1006.6
20260505180039 48 360 1.7 11.3 0.00 0.28 0.28 83 1006.4
20260505174541 47 360 3.5 7.8 0.01 0.28 0.28 86 1006.1
20260505173033 45 360 2.6 8.7 0.04 0.28 0.28 87 1006.3
20260505171533 44 360 0.9 3.5 0.11 0.28 0.28 89 1006.2
20260505170038 43 360 1.7 5.2 0.13 0.28 0.28 90 1006.1
20260505164532 40 360 1.7 8.7 0.13 0.27 0.27 88 1006.2
20260505163034 41 360 1.7 7.0 0.09 0.23 0.23 86 1006.4
20260505161529 43 360 0.0 4.3 0.03 0.17 0.17 87 1005.9
20260505153026 44 360 3.5 7.8 0.01 0.14 0.14 86 1005.7
20260505151524 43 360 1.7 5.2 0.03 0.14 0.14 90 1005.9
20260505124513 40 360 0.0 0.0 0.03 0.06 0.06 90 1004.7
20260505123011 40 360 0.0 2.6 0.03 0.05 0.05 89 1004.9
20260505121513 40 360 0.9 2.6 0.04 0.05 0.05 88 1005.0
20260505120006 40 360 0.0 7.0 0.03 0.04 0.04 88 1005.2
20260505114504 41 360 0.9 3.5 0.03 0.03 0.03 87 1005.5
20260505113007 41 360 0.9 7.0 0.02 0.02 0.02 87 1005.7
20260505111501 41 360 1.7 7.8 0.01 0.01 0.01 87 1005.6
20260505101557 43 360 4.3 13.0 0.00 0.00 0.00 80 1005.6
20260505100057 43 360 3.5 13.9 0.00 0.00 0.00 81 1005.8
20260505094550 43 360 3.5 13.9 0.00 0.00 0.00 81 1005.9
20260505093049 43 360 3.5 12.2 0.00 0.00 0.00 81 1005.7
20260505091547 43 360 6.1 17.4 0.00 0.00 0.00 81 1005.8
20260505090057 43 360 3.5 16.5 0.00 0.00 0.00 81 1006.0
20260505084548 43 360 6.1 12.2 0.00 0.00 0.00 81 1006.1
20260505083040 43 360 4.3 12.2 0.00 0.00 0.00 80 1006.4
20260505081543 43 360 3.5 14.8 0.00 0.00 0.00 81 1006.5
20260505080037 44 360 3.5 12.2 0.00 0.00 0.00 78 1006.7
20260505074532 44 360 4.3 15.6 0.00 0.00 0.00 77 1006.6
20260505073037 44 360 3.5 11.3 0.00 0.00 0.00 77 1006.7
20260505071527 45 360 1.7 4.3 0.00 0.00 0.00 75 1007.0
20260505070024 45 360 1.7 7.8 0.00 0.00 0.00 75 1007.2
20260505064525 45 360 1.7 3.5 0.00 0.00 0.00 74 1007.4
20260505063024 45 360 2.6 9.6 0.00 0.00 0.00 73 1007.2
20260505061522 45 360 5.2 13.9 0.00 0.00 0.00 73 1007.2
20260505060029 45 360 5.2 12.2 0.00 0.00 0.00 72 1007.3
20260505054531 45 360 2.6 17.4 0.00 0.00 0.00 71 1006.6
20260505053017 45 360 4.3 15.6 0.00 0.00 0.00 69 1007.1
20260505051514 46 360 5.2 13.9 0.00 0.00 0.00 67 1007.0